This is the latest recevied weather packets stored in our database for station/object N1OF. If no packets are shown the sender has not sent any weather packets the latest 10 day(s).
| Time | Temp. | Humidity | Pressure | Rain* | Wind** | Luminosity | Snow |
|---|---|---|---|---|---|---|---|
| 1777579532 | 13.33° C | 42% | 1015.4 hPa | 0 mm | - | - | - |
| 1777579232 | 13.33° C | 44% | 1015.5 hPa | 0 mm | - | - | - |
| 1777578928 | 13.33° C | 40% | 1015.7 hPa | 0 mm | - | - | - |
| 1777578623 | 12.78° C | 42% | 1015.6 hPa | 0 mm | - | - | - |
| 1777578323 | 12.22° C | 42% | 1015.7 hPa | 0 mm | - | - | - |
| 1777578020 | 12.22° C | 42% | 1015.6 hPa | 0 mm | - | - | - |
| 1777577715 | 12.78° C | 45% | 1015.5 hPa | 0 mm | - | - | - |
| 1777577412 | 12.78° C | 45% | 1015.6 hPa | 0 mm | - | - | - |
| 1777577108 | 12.78° C | 44% | 1015.5 hPa | 0 mm | - | - | - |
| 1777576804 | 12.78° C | 47% | 1015.6 hPa | 0 mm | - | - | - |
| 1777576504 | 11.67° C | 48% | 1015.5 hPa | 0 mm | - | - | - |
| 1777576201 | 12.22° C | 47% | 1015.7 hPa | 0 mm | - | - | - |
| 1777575896 | 11.67° C | 47% | 1015.7 hPa | 0 mm | - | - | - |
| 1777575593 | 12.22° C | 46% | 1015.7 hPa | 0 mm | - | - | - |
| 1777575289 | 12.78° C | 45% | 1015.5 hPa | 0 mm | - | - | - |
| 1777574985 | 12.78° C | 47% | 1015.9 hPa | 0 mm | - | - | - |
| 1777574681 | 12.22° C | 47% | 1015.7 hPa | 0 mm | - | - | - |
| 1777574378 | 12.22° C | 45% | 1015.9 hPa | 0 mm | - | - | - |
| 1777574073 | 12.22° C | 46% | 1015.9 hPa | 0 mm | - | - | - |
| 1777573768 | 12.22° C | 47% | 1015.9 hPa | 0 mm | - | - | - |
| 1777573465 | 11.67° C | 46% | 1016 hPa | 0 mm | - | - | - |
| 1777573161 | 12.22° C | 49% | 1016.1 hPa | 0 mm | - | - | - |
| 1777572857 | 12.78° C | 49% | 1015.7 hPa | 0 mm | - | - | - |
| 1777572554 | 11.67° C | 49% | 1016 hPa | 0 mm | - | - | - |
| 1777572249 | 11.67° C | 47% | 1016 hPa | 0 mm | - | - | - |
* Rain latest hour (hover to see other rain measurements)
** Current wind speed in m/s (hover to see current wind gust speed)